TimeEDT,TemperatureF,Dew PointF,Humidity,Sea Level PressureIn,VisibilityMPH,Wind Direction,Wind SpeedMPH,Gust SpeedMPH,PrecipitationIn,Events,Conditions,WindDirDegrees,DateUTC
12:56 AM,38.8,38.8,100,30.04,10.0,East,3.5,-,N/A,,Clear,80,2013-09-25 04:56:00
1:56 AM,39.9,39.9,100,30.03,10.0,East,5.8,-,N/A,,Clear,80,2013-09-25 05:56:00
2:56 AM,39.9,38.8,96,30.02,10.0,East,4.6,-,N/A,,Clear,90,2013-09-25 06:56:00
3:56 AM,38.8,37.9,97,30.02,10.0,Calm,Calm,-,N/A,,Clear,0,2013-09-25 07:56:00
4:56 AM,37.9,37.9,100,30.02,10.0,East,3.5,-,N/A,,Clear,90,2013-09-25 08:56:00
5:56 AM,36.9,36.9,100,30.03,10.0,East,5.8,-,N/A,,Clear,80,2013-09-25 09:56:00
6:23 AM,37.4,37.4,100,30.01,10.0,East,5.8,-,N/A,,Clear,80,2013-09-25 10:23:00
6:56 AM,36.9,36.0,97,30.03,10.0,East,6.9,-,N/A,,Clear,80,2013-09-25 10:56:00
7:56 AM,39.9,39.9,100,30.04,10.0,Calm,Calm,-,N/A,,Clear,0,2013-09-25 11:56:00
8:56 AM,46.9,43.9,89,30.04,10.0,East,3.5,-,N/A,,Clear,90,2013-09-25 12:56:00
9:56 AM,54.9,45.9,72,30.04,10.0,Calm,Calm,-,N/A,,Clear,0,2013-09-25 13:56:00
10:56 AM,57.9,48.9,72,30.04,10.0,NW,5.8,-,N/A,,Clear,320,2013-09-25 14:56:00
11:56 AM,61.0,46.9,60,30.03,10.0,NW,3.5,-,N/A,,Clear,310,2013-09-25 15:56:00
12:56 PM,63.9,50.0,61,30.02,10.0,NW,9.2,-,N/A,,Clear,320,2013-09-25 16:56:00
1:56 PM,63.9,50.0,61,30.00,10.0,WNW,8.1,-,N/A,,Clear,290,2013-09-25 17:56:00
2:56 PM,64.9,48.9,56,29.98,10.0,NW,10.4,-,N/A,,Clear,310,2013-09-25 18:56:00
3:56 PM,65.8,50.0,57,29.97,10.0,WNW,8.1,-,N/A,,Clear,300,2013-09-25 19:56:00
4:56 PM,64.9,50.0,58,29.97,10.0,NW,5.8,-,N/A,,Clear,320,2013-09-25 20:56:00
5:56 PM,63.9,50.9,63,29.97,10.0,WNW,8.1,-,N/A,,Clear,300,2013-09-25 21:56:00
6:56 PM,57.9,50.0,75,29.98,10.0,North,4.6,-,N/A,,Clear,360,2013-09-25 22:56:00
7:56 PM,52.9,46.9,80,30.00,10.0,NNE,5.8,-,N/A,,Clear,20,2013-09-25 23:56:00
8:56 PM,46.9,45.0,93,30.01,10.0,Calm,Calm,-,N/A,,Clear,0,2013-09-26 00:56:00
9:56 PM,45.0,45.0,100,30.02,10.0,Calm,Calm,-,N/A,,Clear,0,2013-09-26 01:56:00
10:56 PM,43.9,43.9,100,30.02,10.0,Calm,Calm,-,N/A,,Clear,0,2013-09-26 02:56:00
11:56 PM,43.0,43.0,100,30.03,10.0,Calm,Calm,-,N/A,,Clear,0,2013-09-26 03:56:00